Weather History for Trinidad, CO

Change the Weather History Date:

Monday, March 18, 2013

  Actual Average Record
Temperature  
Mean Temperature 41 °F 43 °F  
Max Temperature 61 °F 58 °F 80 °F (2007)
Min Temperature 20 °F 27 °F 2 °F (1965)
Degree Days  
Heating Degree Days 24 22  
Month to date heating degree days 398 437  
Since 1 July heating degree days 4339 4559  
Cooling Degree Days 0 0  
Month to date cooling degree days 0 0  
Year to date cooling degree days 0 0  
Moisture  
Dew Point 7 °F    
Average Humidity 29    
Maximum Humidity 50    
Minimum Humidity 7    
Precipitation  
Precipitation 0.00 in 0.03 in 0.95 in (1984)
Month to date precipitation 0.15 0.49  
Year to date precipitation 0.53 1.38  
Sea Level Pressure  
Sea Level Pressure 29.84 in    
Wind  
Wind Speed 9 mph (ENE)    
Max Wind Speed 32 mph    
Max Gust Speed 44 mph    
Visibility 10 miles    
Events      
T = Trace of Precipitation, MM = Missing Value Source: NWS Daily Summary

Daily Weather History Graph

Daily Weather History Graph

Search for Another Location

Airport:

Trip Planner

Search our weather history database for the weather conditions in past years. The results will help you decide how hot, cold, wet, or windy it might be!

Date:

Astronomy

Mar. 18, 2013 Rise Set
Actual Time 7:03 AM MDT 7:07 PM MDT
Civil Twilight 6:37 AM MDT 7:33 PM MDT
Nautical Twilight 6:07 AM MDT 8:04 PM MDT
Astronomical Twilight 5:36 AM MDT 8:34 PM MDT
Moon 11:12 AM MDT (3/18) 1:01 AM MDT (3/18)
Length of Visible Light 12h 56m
Length of Day
12h 04m
Waxing Crescent, 41% of the Moon is Illuminated
Mar 18
Waxing Crescent
Mar 19
First Quarter
Mar 27
Full
Apr 2
Last Quarter
Apr 10
New

Hourly Weather History & Observations

Time (MDT) Temp. Windchill Dew Point Humidity Pressure Visibility Wind Dir Wind Speed Gust Speed Precip Events Conditions
12:54 AM 36.0 °F 29.6 °F 14.0 °F 41% 29.70 in 10.0 mi North 8.1 mph - N/A   Clear
1:54 AM 39.9 °F 32.9 °F 15.1 °F 36% 29.76 in 10.0 mi NNE 11.5 mph - N/A   Clear
2:54 AM 34.0 °F 25.0 °F 14.0 °F 44% 29.80 in 10.0 mi ENE 12.7 mph - N/A   Clear
3:54 AM 30.0 °F 22.4 °F 9.0 °F 41% 29.81 in 10.0 mi ENE 8.1 mph - N/A   Clear
4:54 AM 27.0 °F 23.0 °F 7.0 °F 43% 29.85 in 10.0 mi NE 3.5 mph - N/A   Clear
5:54 AM 27.0 °F - 7.0 °F 43% 29.88 in 10.0 mi Calm Calm - N/A   Clear
6:54 AM 24.1 °F - 8.1 °F 51% 29.91 in 10.0 mi Calm Calm - N/A   Clear
7:54 AM 26.1 °F 21.9 °F 10.0 °F 51% 29.91 in 10.0 mi South 3.5 mph - N/A   Clear
8:54 AM 32.0 °F 24.8 °F 10.0 °F 40% 29.92 in 10.0 mi SE 8.1 mph - N/A   Clear
9:54 AM 36.0 °F 29.6 °F 10.0 °F 34% 29.90 in 10.0 mi ESE 8.1 mph - N/A   Clear
10:54 AM 41.0 °F 37.1 °F 14.0 °F 33% 29.88 in 10.0 mi ESE 5.8 mph - N/A   Clear
11:54 AM 46.9 °F - 14.0 °F 27% 29.86 in 10.0 mi ENE 8.1 mph - N/A   Clear
12:54 PM 51.1 °F - 10.0 °F 19% 29.83 in 10.0 mi Variable 6.9 mph - N/A   Clear
1:54 PM 54.0 °F - 7.0 °F 15% 29.78 in 10.0 mi Variable 5.8 mph - N/A   Clear
2:54 PM 60.1 °F - -0.0 °F 9% 29.74 in 10.0 mi NW 24.2 mph 36.8 mph N/A   Clear
3:54 PM 60.1 °F - -5.1 °F 7% 29.74 in 10.0 mi NW 23.0 mph 36.8 mph N/A   Clear
4:54 PM 60.1 °F - -0.0 °F 9% 29.75 in 10.0 mi NNW 18.4 mph 24.2 mph N/A   Clear
5:54 PM 57.9 °F - -0.0 °F 10% 29.75 in 10.0 mi North 16.1 mph - N/A   Clear
6:54 PM 54.0 °F - -0.9 °F 11% 29.81 in 10.0 mi North 13.8 mph 24.2 mph N/A   Clear
7:54 PM 46.0 °F 41.9 °F 1.9 °F 16% 29.89 in 10.0 mi ESE 8.1 mph - N/A   Clear
8:54 PM 37.9 °F 32.1 °F 3.9 °F 24% 29.94 in 10.0 mi SE 8.1 mph - N/A   Clear
9:54 PM 37.0 °F 30.4 °F 5.0 °F 26% 29.93 in 10.0 mi South 9.2 mph - N/A   Clear
10:54 PM 34.0 °F 27.2 °F 5.0 °F 30% 29.92 in 10.0 mi WSW 8.1 mph - N/A   Clear
11:54 PM 36.0 °F - 5.0 °F 27% 29.89 in 10.0 mi Calm Calm - N/A   Clear